| time (UTC) | temp C | wind direction | speed KPH | gust KPH | rain 1hr cm | rain 24hr cm | rain mn cm | humidity % | barometer mb |
| 20260504013015 | 17 | 301 | 0.0 | 6.4 | 0.00 | 0.00 | 0.00 | 33 | 1002.4 |
| 20260504011506 | 18 | 281 | 1.6 | 3.2 | 0.00 | 0.00 | 0.00 | 29 | 1002.4 |
| 20260504010006 | 18 | 297 | 0.0 | 4.8 | 0.00 | 0.00 | 0.00 | 29 | 1002.4 |
| 20260504004506 | 19 | 319 | 3.2 | 12.9 | 0.00 | 0.00 | 0.00 | 27 | 1002.3 |
| 20260504003004 | 20 | 296 | 4.8 | 14.5 | 0.00 | 0.00 | 0.00 | 26 | 1002.2 |
| 20260504001542 | 20 | 314 | 9.7 | 19.3 | 0.00 | 0.00 | 0.00 | 26 | 1002.3 |
| 20260504000041 | 21 | 344 | 8.0 | 14.5 | 0.00 | 0.00 | 0.00 | 26 | 1002.3 |
| 20260503234530 | 21 | 329 | 9.7 | 16.1 | 0.00 | 0.00 | 0.00 | 25 | 1002.3 |
| 20260503233029 | 21 | 314 | 6.4 | 19.3 | 0.00 | 0.00 | 0.00 | 24 | 1002.3 |
| 20260503231529 | 22 | 342 | 4.8 | 19.3 | 0.00 | 0.00 | 0.00 | 24 | 1002.4 |
| 20260503230028 | 21 | 355 | 11.3 | 22.5 | 0.00 | 0.00 | 0.00 | 22 | 1002.5 |
| 20260503224535 | 22 | 342 | 14.5 | 22.5 | 0.00 | 0.00 | 0.00 | 21 | 1002.5 |
| 20260503223025 | 22 | 329 | 11.3 | 27.4 | 0.00 | 0.00 | 0.00 | 21 | 1002.6 |
| 20260503221526 | 22 | 343 | 19.3 | 32.2 | 0.00 | 0.00 | 0.00 | 22 | 1002.4 |
| 20260503221524 | 22 | 9 | 19.3 | 32.2 | 0.00 | 0.00 | 0.00 | 22 | 1002.4 |
| 20260503220024 | 22 | 22 | 11.3 | 24.1 | 0.00 | 0.00 | 0.00 | 24 | 1002.4 |
| 20260503214530 | 22 | 360 | 8.0 | 19.3 | 0.00 | 0.00 | 0.00 | 25 | 1002.4 |
| 20260503213018 | 22 | 303 | 9.7 | 25.7 | 0.00 | 0.00 | 0.00 | 26 | 1002.4 |
| 20260503211516 | 22 | 355 | 14.5 | 25.7 | 0.00 | 0.00 | 0.00 | 27 | 1002.4 |
| 20260503210035 | 22 | 325 | 9.7 | 25.7 | 0.00 | 0.00 | 0.00 | 28 | 1002.6 |
| 20260503204512 | 22 | 355 | 9.7 | 22.5 | 0.00 | 0.00 | 0.00 | 28 | 1002.8 |
| 20260503203038 | 22 | 29 | 9.7 | 20.9 | 0.00 | 0.00 | 0.00 | 30 | 1003.0 |
| 20260503201538 | 22 | 355 | 8.0 | 17.7 | 0.00 | 0.00 | 0.00 | 30 | 1003.0 |
| 20260503200043 | 22 | 331 | 11.3 | 25.7 | 0.00 | 0.00 | 0.00 | 30 | 1003.1 |
| 20260503194534 | 22 | 30 | 11.3 | 24.1 | 0.00 | 0.00 | 0.00 | 29 | 1003.2 |
| 20260503193032 | 22 | 14 | 6.4 | 24.1 | 0.00 | 0.00 | 0.00 | 31 | 1003.3 |
| 20260503191534 | 22 | 350 | 12.9 | 25.7 | 0.00 | 0.00 | 0.00 | 30 | 1003.3 |
| 20260503190021 | 22 | 346 | 16.1 | 29.0 | 0.00 | 0.00 | 0.00 | 27 | 1003.4 |
| 20260503184521 | 21 | 351 | 16.1 | 25.7 | 0.00 | 0.00 | 0.00 | 31 | 1003.4 |
| 20260503183022 | 21 | 329 | 11.3 | 19.3 | 0.00 | 0.00 | 0.00 | 32 | 1003.5 |
| 20260503181514 | 21 | 338 | 9.7 | 20.9 | 0.00 | 0.00 | 0.00 | 34 | 1003.7 |
| 20260503180007 | 21 | 306 | 8.0 | 16.1 | 0.00 | 0.00 | 0.00 | 32 | 1003.8 |
| 20260503174502 | 20 | 350 | 8.0 | 22.5 | 0.00 | 0.00 | 0.00 | 36 | 1003.9 |
| 20260503173154 | 21 | 48 | 3.2 | 16.1 | 0.00 | 0.00 | 0.00 | 36 | 1004.1 |
| 20260503171554 | 20 | 24 | 9.7 | 12.9 | 0.00 | 0.00 | 0.00 | 35 | 1004.1 |
| 20260503081559 | 13 | 253 | 9.7 | 25.7 | 0.00 | 0.00 | 0.00 | 49 | 1005.2 |
| 20260503071543 | 12 | 221 | 6.4 | 11.3 | 0.00 | 0.00 | 0.00 | 49 | 1006.6 |
| 20260503054514 | 13 | 231 | 8.0 | 14.5 | 0.00 | 0.00 | 0.00 | 47 | 1007.6 |
| 20260503053006 | 13 | 242 | 4.8 | 11.3 | 0.00 | 0.00 | 0.00 | 48 | 1007.8 |
| 20260503051500 | 13 | 189 | 1.6 | 8.0 | 0.00 | 0.00 | 0.00 | 52 | 1008.0 |
| 20260503050058 | 13 | 227 | 4.8 | 11.3 | 0.00 | 0.00 | 0.00 | 51 | 1008.1 |
| 20260503044556 | 13 | 220 | 4.8 | 8.0 | 0.00 | 0.00 | 0.00 | 51 | 1008.2 |
| 20260503043048 | 13 | 232 | 4.8 | 8.0 | 0.00 | 0.00 | 0.00 | 51 | 1008.6 |
| 20260503041541 | 14 | 241 | 1.6 | 4.8 | 0.00 | 0.00 | 0.00 | 48 | 1008.8 |
| 20260503040037 | 15 | 260 | 1.6 | 6.4 | 0.00 | 0.00 | 0.00 | 46 | 1008.9 |
| 20260503034535 | 15 | 241 | 1.6 | 6.4 | 0.00 | 0.00 | 0.00 | 44 | 1009.0 |
| 20260503033029 | 15 | 274 | 3.2 | 6.4 | 0.00 | 0.00 | 0.00 | 42 | 1009.4 |
| 20260503031608 | 16 | 275 | 4.8 | 11.3 | 0.00 | 0.00 | 0.00 | 41 | 1009.8 |
| 20260503030054 | 16 | 250 | 6.4 | 12.9 | 0.00 | 0.00 | 0.00 | 40 | 1010.0 |
| 20260503024554 | 16 | 322 | 3.2 | 16.1 | 0.00 | 0.00 | 0.00 | 39 | 1010.0 |
| 20260503023055 | 16 | 280 | 4.8 | 16.1 | 0.00 | 0.00 | 0.00 | 39 | 1010.2 |
| 20260503021550 | 16 | 250 | 3.2 | 12.9 | 0.00 | 0.00 | 0.00 | 38 | 1010.2 |
| 20260503020058 | 16 | 335 | 3.2 | 8.0 | 0.00 | 0.00 | 0.00 | 39 | 1010.2 |
| 20260503014553 | 16 | 232 | 3.2 | 9.7 | 0.00 | 0.00 | 0.00 | 39 | 1009.9 |